Location: Newark
(48.6461°N, 4.3644°W)
Time: 20:03:36
(UTC+00:00)

Tiros 1 despin weight - Visible Passes

Search period start: 29 January 2020 00:00
Search period end: 08 February 2020 00:00
Orbit: 594 x 642 km, 48.2° (Epoch: 28 January)

Date Brightness Start Highest point End Pass type
(mag) Time Alt. Az. Time Alt. Az. Time Alt. Az.
03 Feb ? 07:05:17 10° SSE 07:07:21 13° SE 07:09:25 10° ESE visible
06 Feb ? 06:12:30 10° S 06:15:17 17° SE 06:18:05 10° E visible
07 Feb ? 06:27:46 10° SSW 06:31:29 27° SSE 06:35:14 10° E visible
